{"data":{"norad_id":67790,"intl_designator":"2026-030AC","name":"KUIPER-00268","alt_names":[],"object_type":"PAYLOAD","status":"ACTIVE","operator":null,"country":"US","launch_date":"2026-02-12","launch_site_code":"FRGUI","launch_vehicle":null,"mission":null,"orbit_class":"UNKNOWN","rcs_meters":null,"size_class":null,"mass_kg":null,"dimensions":null,"purposes":[],"wikipedia_slug":null,"has_3d_model":false,"image_url":null,"decayed_at":null,"tle_current":{"epoch":"2026-05-25T04:00:03.998880Z","epoch_age_seconds":67846,"freshness":"FRESH","line1":"1 67790U 26030AC  26145.16671295  .00021582  00000+0  19569-2 0  9994","line2":"2 67790  51.8979 212.8334 0003095   3.5694 233.4302 14.95258728  4559","mean_motion":14.95258728,"eccentricity":0.0003095,"inclination_deg":51.8979,"raan_deg":212.8334,"arg_perigee_deg":3.5694,"mean_anomaly_deg":233.4302,"bstar":0.0019569,"rev_number":455,"period_min":96.304403581452,"perigee_km":579.41577016813,"apogee_km":583.72382867698,"semimajor_km":6959.7067994226,"source":"CELESTRAK","updated_at":"2026-05-25T13:38:07.263031Z"}}}